Regional Weather Roundup
Issued by NWS Sterling, VA

Home | Current Version | Previous Version | Text Only | Print | Product List | Glossary Off
Versions: 1 2 3 4 5 6 7 8 9 10 11 12 13 14 15 16 17 18 19 20 21 22 23 24 25 26 27

000
ASUS41 KLWX 201510
RWRLWX

REGIONAL WEATHER ROUNDUP
NATIONAL WEATHER SERVICE BALTIMORE MD/WASHINGTON DC
1000 AM EST TUE FEB 20 2018

Note: "FAIR" indicates few or no clouds below 12,000 feet
with no significant weather and/or obstructions to visibility.
 TC=TEMPERATURE CELSIUS

 * =Non NWS site. Station does not report precipitation (e.g. rain,
    snow, etc.), thunder, or fog.

DCZ001-MDZ009-015-VAZ040>042-051-053>054-201600-
WASHINGTON METRO

CITY           SKY/WX    TMP DP  RH WIND       PRES   REMARKS
WASHINGTON NAT PTSUNNY   60  55  83 S8        30.39R
DULLES         PTSUNNY   59  55  87 S12       30.37S
ANDREWS AFB    FAIR      64  57  80 SW15      30.37F
FT BELVOIR     FAIR      61  55  81 SW6       30.39S
COLLEGE PARK*  FAIR      60  54  80 SW6       30.38R
LEESBURG*      FAIR      57  54  88 S7        30.38S
MANASSAS*      FAIR      61  55  81 SW9       30.39S
GAITHERSBURG*  FAIR      61  55  81 SW6       30.38S

$$

MDZ006>007-011-014-201600-
BALTIMORE METRO

CITY           SKY/WX    TMP DP  RH WIND       PRES   REMARKS
BWI AIRPORT    PTSUNNY   61  57  87 SW9       30.36S
MD SCIENCE CTR   N/A     60  55  83 MISG      30.40R
MARTIN STATE   PTSUNNY   52  52 100 SE6       30.38F FOG
ANNAPOLIS      FAIR      67  59  75 SW8       30.36F
FORT MEADE*    FAIR      61  54  77 SW10      30.39S

$$

MDZ012-015-019>023-201600-
MARYLAND EASTERN SHORE

CITY           SKY/WX    TMP DP  RH WIND       PRES   REMARKS
OCEAN CITY     CLOUDY    61  59  93 SW10G17   30.45S
SALISBURY      CLOUDY    61  59  93 SW13      30.43F
CAMBRIDGE*     CLOUDY    57  57 100 S10G17    30.42F
EASTON*        CLOUDY    59  55  88 SW13      30.44R

$$

MDZ017>025-201600-
SOUTHERN MARYLAND

CITY           SKY/WX    TMP DP  RH WIND       PRES   REMARKS
PATUXENT RIVER NOT AVBL
ST INIGOES     CLOUDY    56  41  57 S6        30.43F
LEONARDTOWN*   CLOUDY    57  55  94 SW9       30.44S

$$

MDZ003>005-201600-
NORTH CENTRAL MARYLAND

CITY           SKY/WX    TMP DP  RH WIND       PRES   REMARKS
FREDERICK*     CLOUDY    55  55 100 SW7       30.39S FOG
HAGERSTOWN APT FAIR      55  49  80 VRB3      30.33S
WESTMINSTER*   FAIR      55  55 100 SW5       30.35F

$$

MDZ501>502-201600-
WESTERN MARYLAND

CITY           SKY/WX    TMP DP  RH WIND       PRES   REMARKS
OAKLAND*       FAIR      63  50  63 SW12G23   30.33S
CUMBERLAND*    FAIR      54  50  87 CALM      30.36F

$$

VAZ025>031-201600-
SHENANDOAH VALLEY

CITY           SKY/WX    TMP DP  RH WIND       PRES   REMARKS
WINCHESTER*    FAIR      61  52  72 SW12      30.35S
FRONT ROYAL*   FAIR      64  55  72 SW6       30.34S
LURAY*         FAIR      66  55  68 S9        30.37S
NEW MARKET*    FAIR      65  55  69 SW9       30.35F
STAUNTON*      FAIR      62  55  77 SW6       30.41S
WAYNESBORO*    FAIR      68  55  64 SW6G16    30.39F

$$

WVZ021-048>050-054>055-201600-
EASTERN WEST VIRGINIA PANHANDLE

CITY           SKY/WX    TMP DP  RH WIND       PRES   REMARKS
MARTINSBURG    FAIR      64  53  67 S9        30.31F
PETERSBURG*    FAIR      66  52  60 S16G25    30.32S

$$

VAZ036>039-050-201600-
CENTRAL FOOTHILLS

CITY           SKY/WX    TMP DP  RH WIND       PRES   REMARKS
CHARLOTTESVILL FAIR      60  54  80 S8        30.40S
CULPEPER*      FAIR      62  54  76 SW5       30.40F
ORANGE*        PTSUNNY   61  55  82 S6G18     30.40F
GORDONSVILLE*  CLOUDY    59  58  94 SW8       30.40F
WARRENTON*     FAIR      64  54  70 SW13      30.38F

$$

VAZ055>057-201600-
NORTH AND CENTRAL PIEDMONT

CITY           SKY/WX    TMP DP  RH WIND       PRES   REMARKS
FREDERICKSBRG* CLOUDY    62  61  97 SW13G18   30.41S
STAFFORD*      FAIR      64  61  91 SW10      30.44F

$$

NCZ024-NYZ072-PAZ021-071-VAZ022-071-201600-
OTHER REGIONAL OBSERVATIONS

CITY           SKY/WX    TMP DP  RH WIND       PRES   REMARKS
NEW YORK CITY  CLOUDY    53  51  93 W6        30.36S
PHILADELPHIA   CLOUDY    53  53 100 SW10      30.38R FOG
PITTSBURGH     CLOUDY    68  54  60 SW16G25   30.21S
ROANOKE        FOG       51  51 100 CALM      30.45S VSB 1/8
RICHMOND       FOG       57  56  96 S7        30.46S VSB 1
RALEIGH        FOG       56  56 100 SW5       30.48S VSB 1/4

$$

ANZ530>537-201600-
MARINE OBSERVATIONS

STATION/POSITION TIME  TEMP    WIND        PRES
                       AIR SEA DIR/SP/G
                 (UTC) (F)     (DEG/KT/KT) (MB)
THOMAS PT LIGHT  1500   51 38  170/  9/ 10   N/A
BALT KEY BRIDGE  1448   51     100/  7/  7 1028.1F
COVE POINT       1448   57     220/ 13/ 18 1030.7F
LEWISETTA        1448   58 44  240/ 11/ 14 1030.8S
SOLOMONS ISLAND  1448   55 42  220/ 13/ 16 1030.0F
PINEY POINT      1448          250/  6/  8   N/A

$$





USA.gov is the U.S. government's official web portal to all federal, state and local government web resources and services.